Location: Peterborough
(44.3091°N, 78.3197°W)
Time: 03:37:10
(UTC-04:00)

Tiros 1 despin weight - Pass Details

Date: 25 March 2023
Orbit: 586 x 632 km, 48.2° (Epoch: 08 June)

Event Time Altitude Azimuth Distance (km) Brightness Sun altitude
Rises 23:33:24 0° 263° (W) 2,809 - -38.0°
Reaches altitude 10° 23:35:42 10° 268° (W) 1,913 - -38.2°
Maximum altitude 23:40:02 59° 348° (NNW) 688 - -38.6°
Drops below altitude 10° 23:44:25 10° 69° (ENE) 1,940 - -39.0°
Sets 23:46:46 0° 73° (ENE) 2,852 - -39.2°
